Weather History for PANN - October, 2011

Change the Weather History Date:

Friday, October 7, 2011

  Actual Average Record
Temperature  
Mean Temperature 35 °F -  
Max Temperature 42 °F 40 °F 64 °F (1964)
Min Temperature 28 °F 24 °F 17 °F (2014)
Degree Days  
Heating Degree Days 30    
Moisture  
Dew Point 28 °F    
Average Humidity 80    
Maximum Humidity 92    
Minimum Humidity 62    
Precipitation  
Precipitation 0.01 in - - ()
Sea Level Pressure  
Sea Level Pressure 29.69 in    
Wind  
Wind Speed 1 mph (SE)    
Max Wind Speed 5 mph    
Max Gust Speed -    
Visibility 10 miles    
Events      
Averages and records for this station are not official NWS values.
T = Trace of Precipitation, MM = Missing Value Source: NWS Daily Summary

Daily Weather History Graph

Daily Weather History Graph

Search for Another Location

Airport or City:

Trip Planner

Search our weather history database for the weather conditions in past years. The results will help you decide how hot, cold, wet, or windy it might be!

Date:

Astronomy

Oct. 07, 2011 Rise Set
Actual Time 8:23 AM AKDT 7:03 PM AKDT
Civil Twilight 7:34 AM AKDT 7:51 PM AKDT
Nautical Twilight 6:38 AM AKDT 8:47 PM AKDT
Astronomical Twilight 5:38 AM AKDT 9:46 PM AKDT
Moon 5:52 PM AKDT (10/7) 3:04 AM AKDT (10/7)
Length of Visible Light 12h 16m
Length of Day
10h 40m
Waxing Gibbous, 84% of the Moon is Illuminated
Oct 7
Waxing Gibbous
Oct 11
Full
Oct 19
Last Quarter
Oct 26
New
Nov 2
First Quarter

Hourly Weather History & Observations

Time (AKDT) Temp. Windchill Dew Point Humidity Pressure Visibility Wind Dir Wind Speed Gust Speed Precip Events Conditions
12:53 AM 32.0 °F - 27.0 °F 82% 29.53 in 10.0 mi Calm Calm - N/A   Scattered Clouds
1:53 AM 30.9 °F 27.5 °F 27.0 °F 85% 29.55 in 10.0 mi WSW 3.5 mph - N/A   Clear
2:53 AM 30.9 °F - 27.0 °F 85% 29.57 in 10.0 mi Calm Calm - N/A   Clear
3:53 AM 30.9 °F - 27.0 °F 85% 29.58 in 10.0 mi Calm Calm - N/A   Overcast
4:53 AM 30.9 °F 27.5 °F 27.0 °F 85% 29.60 in 10.0 mi West 3.5 mph - N/A   Overcast
5:53 AM 30.0 °F - 26.1 °F 85% 29.61 in 10.0 mi Calm Calm - N/A   Mostly Cloudy
6:53 AM 28.9 °F - 26.1 °F 89% 29.63 in 10.0 mi Calm Calm - N/A   Mostly Cloudy
7:53 AM 28.9 °F - 26.1 °F 89% 29.65 in 10.0 mi Calm Calm - N/A   Overcast
8:53 AM 30.0 °F 26.5 °F 27.0 °F 88% 29.65 in 10.0 mi West 3.5 mph - N/A   Overcast
9:53 AM 30.9 °F 27.5 °F 27.0 °F 85% 29.68 in 10.0 mi SW 3.5 mph - N/A   Mostly Cloudy
10:53 AM 30.9 °F - 27.0 °F 85% 29.69 in 10.0 mi Calm Calm - N/A   Scattered Clouds
11:53 AM 34.0 °F 31.0 °F 28.0 °F 79% 29.71 in 10.0 mi East 3.5 mph - N/A   Overcast
12:53 PM 36.0 °F - 28.9 °F 76% 29.72 in 10.0 mi Calm Calm - N/A   Overcast
1:53 PM 39.0 °F - 28.9 °F 67% 29.74 in 10.0 mi Calm Calm - N/A   Overcast
2:53 PM 41.0 °F - 28.9 °F 62% 29.74 in 10.0 mi Calm Calm - N/A   Overcast
3:53 PM 41.0 °F - 30.9 °F 67% 29.75 in 10.0 mi Calm Calm - 0.01 in   Overcast
4:53 PM 42.1 °F - 30.0 °F 62% 29.75 in 10.0 mi Calm Calm - N/A   Overcast
5:53 PM 42.1 °F - 30.0 °F 62% 29.75 in 10.0 mi Calm Calm - N/A   Overcast
6:53 PM 39.9 °F 36.7 °F 32.0 °F 73% 29.76 in 10.0 mi ENE 4.6 mph - 0.00 in   Overcast
7:53 PM 37.0 °F 34.5 °F 30.0 °F 76% 29.77 in 10.0 mi East 3.5 mph - N/A   Mostly Cloudy
8:53 PM 36.0 °F - 30.9 °F 82% 29.78 in 10.0 mi Calm Calm - N/A   Overcast
9:53 PM 35.1 °F 32.2 °F 30.9 °F 85% 29.79 in 10.0 mi ENE 3.5 mph - N/A   Overcast
10:53 PM 30.9 °F - 28.9 °F 92% 29.80 in 10.0 mi Calm Calm - N/A   Clear
11:53 PM 28.0 °F - 26.1 °F 92% 29.81 in 10.0 mi Calm Calm - N/A   Clear